Погода в Светлом

Россия / Калининградская область     54°40′38″N   20°08′08″E
темп.,
°C
ветер,
м/с
пор.,
м/с
влажн.,
%
обл.,
%
осадки,
мм/ч
давл.,
гПа
погр.,
м
26 февраля, пт
пт2623:00+7зюз512930 0.0 1021275
02:00+7з716894 0.0 1022462
05:00+5з6148971 0.0 1021458
08:00+4з7148285 0.0 1021433
11:00+5з81579100 0.0 1021586
14:00+6з9157899 0.0 1020833
17:00+5з9148580 0.0 1019925
20:00+5з9168789 0.0 1019697
27 февраля, сб
сб2723:00+4зсз8158934 0.0 1019443
02:00+4зсз6138817 0.0 1020393
05:00+3сз613860 0.0 1021409
08:00+2ссз512880 0.0 1024470
11:00+5ссз711760 0.0 1025641
14:00+5ссз711750 0.0 1027640
17:00+4ссз610790 0.0 1028605
20:00+2ссз410890 0.0 1030347
28 февраля, вс
вс2823:00+1сз38920 0.0 1031203
02:00+1сз35930 0.0 1032117
05:00+1зсз359255 0.0 103190
08:00+1сз359059 0.0 103287
11:00+6сз486922 0.0 1032439
14:00+7зсз596227 0.0 1032551
17:00+5зсз611840 0.0 1031438
20:00+3сз49947 0.0 1032300
1 марта, пн
пн123:00+2сз359545 0.0 1033127
02:00+2сз349223 0.0 103382
05:00+2сз34900 0.0 103368
08:00+2зсз34910 0.0 103564
11:00+6зсз46800 0.0 1035282
14:00+6з467810 0.0 1035330
17:00+5з477971 0.0 1035281
20:00+3з348962 0.0 103580
2 марта, вт
вт223:00+3з489240 0.0 1034162
02:00+3з5119127 0.0 1034298
05:00+3з5119188 0.0 1033297
08:00+2з4119293 0.0 1033284
11:00+6з6108259 0.0 1033435
14:00+7з6107839 0.0 1032458
17:00+6з5107812 0.0 1032444
20:00+4з49876 0.0 1031200